Estación de Negrete
Ultimos registro cada 15 minutos 63
| N° | Estación | Fecha / Hora | Temperatura | Humedad | Lluvia | Velocidad | Dirección | Radiación | Presion |
| 63 | Negrete | 07-05-2026 15:30 | 10,9 | 73,3 | 0 | 0 | 216 | 78,1 | 1016,3 |
| 62 | Negrete | 07-05-2026 15:15 | 11,4 | 67,3 | 0 | 0 | 188 | 93,1 | 1016,2 |
| 61 | Negrete | 07-05-2026 15:00 | 11,7 | 62,8 | 0 | 0 | 218 | 133,1 | 1016,5 |
| 60 | Negrete | 07-05-2026 14:45 | 11,3 | 67,1 | 0 | 0 | 250 | 125,6 | 1016,3 |
| 59 | Negrete | 07-05-2026 14:30 | 11,4 | 66,4 | 0 | 0 | 247 | 124,4 | 1016,4 |
| 58 | Negrete | 07-05-2026 14:15 | 11,6 | 67,3 | 0 | 0 | 225 | 129,4 | 1016,6 |
| 57 | Negrete | 07-05-2026 14:00 | 11,7 | 61,6 | 0 | 0 | 218 | 149,4 | 1016,5 |
| 56 | Negrete | 07-05-2026 13:45 | 11,8 | 61,2 | 0 | 0 | 260 | 155,6 | 1016,8 |
| 55 | Negrete | 07-05-2026 13:30 | 11,7 | 66,4 | 0 | 0 | 233 | 205,6 | 1016,5 |
| 54 | Negrete | 07-05-2026 13:15 | 12,4 | 70,4 | 0 | 0 | 73 | 249,4 | 1016,6 |
| 53 | Negrete | 07-05-2026 13:00 | 11,8 | 67,4 | 0 | 0 | 160 | 205,6 | 1016,8 |
| 52 | Negrete | 07-05-2026 12:45 | 11,8 | 66,2 | 0 | 0 | 229 | 216,9 | 1016,9 |
| 51 | Negrete | 07-05-2026 12:30 | 11,7 | 63,9 | 0 | 0 | 152 | 201,9 | 1017,5 |
| 50 | Negrete | 07-05-2026 12:15 | 12,1 | 65,4 | 0 | 0 | 178 | 268,1 | 1017,3 |
| 49 | Negrete | 07-05-2026 12:00 | 12,6 | 67,2 | 0 | 0 | 205 | 286,9 | 1017 |
| 48 | Negrete | 07-05-2026 11:45 | 12 | 66,7 | 0 | 0,5 | 260 | 681,9 | 1017,3 |
| 47 | Negrete | 07-05-2026 11:30 | 11,7 | 68,5 | 0 | 0 | 208 | 729,4 | 1017,8 |
| 46 | Negrete | 07-05-2026 11:15 | 11,6 | 74,6 | 0 | 0 | 208 | 199,4 | 1018 |
| 45 | Negrete | 07-05-2026 11:00 | 10,6 | 78,2 | 0 | 0 | 232 | 166,9 | 1017,9 |
| 44 | Negrete | 07-05-2026 10:45 | 11,5 | 74,6 | 0 | 0 | 183 | 423,1 | 1017,9 |
| 43 | Negrete | 07-05-2026 10:30 | 11,5 | 80,7 | 0 | 0 | 163 | 85,6 | 1018,1 |
| 42 | Negrete | 07-05-2026 10:15 | 10,8 | 84 | 0 | 0 | 246 | 441,9 | 1018,1 |
| 41 | Negrete | 07-05-2026 10:00 | 9,8 | 90,4 | 0 | 0 | 215 | 204,4 | 1018,1 |
| 40 | Negrete | 07-05-2026 09:45 | 9,4 | 90,8 | 0 | 0 | 175 | 118,1 | 1018,2 |
| 39 | Negrete | 07-05-2026 09:30 | 8,7 | 98 | 0 | 0 | 173 | 273,1 | 1018 |
| 38 | Negrete | 07-05-2026 09:15 | 7,6 | 97,2 | 0 | 0 | 131 | 56,9 | 1018,1 |
| 37 | Negrete | 07-05-2026 09:00 | 7,4 | 97,8 | 0,4 | 0 | 136 | 53,1 | 1017,9 |
| 36 | Negrete | 07-05-2026 08:45 | 7,5 | 98,5 | 0 | 0 | 192 | 35,6 | 1017,7 |
| 35 | Negrete | 07-05-2026 08:30 | 7,6 | 98,8 | 0 | 0 | 234 | 23,1 | 1017,4 |
| 34 | Negrete | 07-05-2026 08:15 | 7 | 98,8 | 0 | 0 | 234 | 54,4 | 1017,2 |
| 33 | Negrete | 07-05-2026 08:00 | 6,4 | 98,6 | 0 | 0 | 234 | 15,6 | 1016,9 |
| 32 | Negrete | 07-05-2026 07:45 | 6,6 | 98,6 | 0 | 0 | 233 | 4,4 | 1016,9 |
| 31 | Negrete | 07-05-2026 07:30 | 6,6 | 98,4 | 0 | 0 | 230 | 0,6 | 1017 |
| 30 | Negrete | 07-05-2026 07:15 | 6,6 | 98,4 | 0 | 0 | 230 | 0,6 | 1016,9 |
| 29 | Negrete | 07-05-2026 07:00 | 6,6 | 98,2 | 0 | 0 | 230 | 0,6 | 1016,7 |
| 28 | Negrete | 07-05-2026 06:45 | 7,3 | 98,1 | 0 | 0 | 230 | 0,6 | 1016,5 |
| 27 | Negrete | 07-05-2026 06:30 | 7,8 | 98,5 | 0,2 | 0 | 229 | 0,6 | 1016,6 |
| 26 | Negrete | 07-05-2026 06:15 | 7,8 | 98,5 | 0 | 0 | 209 | 0,6 | 1016,5 |
| 25 | Negrete | 07-05-2026 06:00 | 7,8 | 98,3 | 0 | 0 | 208 | 0,6 | 1016,2 |
| 24 | Negrete | 07-05-2026 05:45 | 7,9 | 98,3 | 0,2 | 0 | 208 | 0,6 | 1016 |
| 23 | Negrete | 07-05-2026 05:30 | 8 | 98,3 | 0,2 | 0 | 208 | 0,6 | 1015,9 |
| 22 | Negrete | 07-05-2026 05:15 | 8 | 98,2 | 0 | 0 | 208 | 0,6 | 1016,1 |
| 21 | Negrete | 07-05-2026 05:00 | 7,9 | 98,2 | 0 | 0 | 208 | 0,6 | 1015,7 |
| 20 | Negrete | 07-05-2026 04:45 | 7,9 | 98,2 | 0,4 | 0 | 208 | 0,6 | 1015,5 |
| 19 | Negrete | 07-05-2026 04:30 | 7,9 | 98,2 | 0,2 | 0 | 208 | 0,6 | 1015,5 |
| 18 | Negrete | 07-05-2026 04:15 | 7,9 | 98,2 | 0 | 0 | 208 | 0,6 | 1015,4 |
| 17 | Negrete | 07-05-2026 04:00 | 7,8 | 98,1 | 0 | 0 | 208 | 0,6 | 1015,4 |
| 16 | Negrete | 07-05-2026 03:45 | 7,8 | 98,1 | 0 | 0 | 206 | 0,6 | 1015,2 |
| 15 | Negrete | 07-05-2026 03:30 | 7,6 | 98 | 0 | 0 | 198 | 0,6 | 1014,9 |
| 14 | Negrete | 07-05-2026 03:15 | 7,7 | 98,1 | 0 | 0 | 218 | 0,6 | 1014,9 |
| 13 | Negrete | 07-05-2026 03:00 | 7,6 | 98,1 | 0 | 0 | 218 | 0,6 | 1014,9 |
| 12 | Negrete | 07-05-2026 02:45 | 7,5 | 98,2 | 0 | 0 | 218 | 0,6 | 1015,1 |
| 11 | Negrete | 07-05-2026 02:30 | 7,3 | 98,1 | 0 | 0 | 195 | 0,6 | 1014,9 |
| 10 | Negrete | 07-05-2026 02:15 | 7,1 | 98,1 | 0 | 0 | 183 | 0,6 | 1014,8 |
| 9 | Negrete | 07-05-2026 02:00 | 6,9 | 98 | 0 | 0 | 183 | 0,6 | 1014,7 |
| 8 | Negrete | 07-05-2026 01:45 | 6,5 | 97,9 | 0 | 0 | 183 | 0,6 | 1014,4 |
| 7 | Negrete | 07-05-2026 01:30 | 6,3 | 97,9 | 0 | 0 | 183 | 0,6 | 1014,3 |
| 6 | Negrete | 07-05-2026 01:15 | 5,6 | 97,7 | 0 | 0 | 183 | 0,6 | 1014,3 |
| 5 | Negrete | 07-05-2026 01:00 | 5,3 | 97,1 | 0 | 0 | 183 | 0,6 | 1014 |
| 4 | Negrete | 07-05-2026 00:45 | 5,5 | 97,1 | 0 | 0 | 183 | 0,6 | 1013,7 |
| 3 | Negrete | 07-05-2026 00:30 | 5,6 | 96,8 | 0 | 0 | 183 | 0,6 | 1013,7 |
| 2 | Negrete | 07-05-2026 00:15 | 6,1 | 96,8 | 0 | 0 | 183 | 0,6 | 1013,8 |
| 1 | Negrete | 07-05-2026 00:00 | 6,3 | 96,8 | 0 | 0 | 183 | 0,6 | 1013,9 |